Время (UTC), дата Ветер
(°,м/с) 
Видим.   Явления Облачность Т
(°С)
Тd
(°С)
f(%) Тe
(°С)
Pmin
(гПа)
dP
(гПа)
Po
(мм)
O2
(г/м3)
Тmin Tmax R s Состояние
почвы
00 01.02.12 060 (СВ) 10 км  {снег}  10/1 1000 м средняя 
[Sc|As op]
-15.1 -17.5 82 -17  1021.9  -0.3  763  327           
03 01.02.12 040 (СВ) 10 км    10/0 средняя, верхняя 
[As op|Ci]
-15.7 -18.2 81 -16  1021.7  -0.2  763  328        неравномерный
сухой снег
100% 
06 01.02.12 040 (СВ) 10 км    10/0 средняя, верхняя 
[Ac trans|Ci]
-15.2 -18 79 -15  1022.3  0.6  764  327  -15.7       
09 01.02.12 040 (СВ) 4000 м  слаб. снег  10/10 600 м 
[Ns]
-13.5 -16.7 77 -16  1022.1  -0.2  764  325           
12 01.02.12 030 (СВ) 10 км  {снег}  10/4 600 м средняя 
[Sc|Ac und]
-12.3 -16.5 71 -14  1022  0.1  764  324           
15 01.02.12 010 (С) 4000 м  слаб. снег  10/10 300 м 
[Ns]
-13.5 -15.7 83 -13  1025.4  3.4  766  326    -11.8       
18 01.02.12 320 (СЗ) 4000 м  слаб. снег  10/10 300 м 
[Ns]
-14 -16.3 83 -14  1028.1  2.7  768  328    -11.8     
21 01.02.12 300 (СЗ) 10 км  {снег}  ясно 
-16 -17.7 87 -16  1030.1  1.9  770  331           
00 02.02.12 300 (СЗ) 10 км  {снег}  10/10 600 м 
[St]
-15.4 -17.4 84 -15  1032.1  771  331           
03 02.02.12 330 (СЗ) 10 км    10/10 600 м 
[St]
-15.5 -17.6 84 -16  1033.6  1.5  772  331        равномерный
сухой снег
100% 
06 02.02.12 тихо ()   4000 м  слаб. ливневой снег  6/6 600 м кучево-дожд. 
[Cb cap]
-14.3 -17.1 79 -14  1034.9  1.3  773  330  -16.5    0.3     
09 02.02.12 050 (СВ) 10 км  {ливн. осадки}  3/1 1000 м средняя, верхняя 
[Sc|Ac trans|Ci fib]
-12 -17.3 65 -12  1035.3  0.4  773  327           
12 02.02.12 060 (СВ) 10 км  {ливн. осадки}  ясно 
-11.4 -17 63 -13  1034.9  -0.4  773  327           
15 02.02.12 050 (СВ) 10 км    8/6 1000 м средняя 
[Sc|Ac trans]
-13.6 -17.1 75 -16  1035.1  0.2  773  329    -10.7       
18 02.02.12 050 (СВ) 10 км    10/0 средняя 
[As trans]
-14.7 -17.7 78 -15  1035.4  0.3  773  331    -10.7  0.2     
21 02.02.12 060 (СВ) 10 км    10/0 средняя 
[As trans]
-14.3 -17.6 76 -16  1034.9  -0.5  773  330           
00 03.02.12 020 (С) 10 км    10/0 средняя 
[As trans]
-14 -17.4 75 -14  1035.7  0.8  774  330           
03 03.02.12 040 (СВ) 10 км    9/0 средняя 
[Ac trans]
-14.8 -18 77 -15  1036.4  0.7  774  331           
06 03.02.12 070 (В) 10 км    5/0 средняя, верхняя 
[Ac trans|Ci fib]
-14.9 -18.7 73 -15  1038.1  1.7  776  332  -15.5         
09 03.02.12 050 (СВ) 10 км    4/0 верхняя 
[Ci fib]
-9.7 -15.9 60 -11  1038.4  0.3  776  325           
12 03.02.12 060 (СВ) 10 км    8/0 верхняя 
[Ci fib]
-7.5 -14.2 59 -9  1038.4  776  323           
15 03.02.12 060 (СВ) 10 км    3/0 верхняя 
[Ci fib]
-10.3 -14.3 73 -10  1039.3  0.9  776  326    -6.7       
18 03.02.12 060 (СВ) 10 км    ясно 
-12.7 -15.6 79 -13  1039.8  0.5  777  330    -6.7       
21 03.02.12 040 (СВ) 10 км    ясно 
-14.4 -16.9 81 -14  1039.9  0.1  777  332           
00 04.02.12 тихо ()   10 км    ясно 
-15.3 -17.6 83 -15  1039.6  -0.3  777  333           
03 04.02.12 070 (В) 10 км    3/0 верхняя 
[Ci fib]
-15.4 -17.9 81 -15  1039.1  -0.5  776  333        равномерный
сухой снег
100% 
06 04.02.12 060 (СВ) 10 км    5/0 верхняя 
[Ci]
-12.8 -16.7 72 -13  1038.8  -0.2  776  330  -15.5         
09 04.02.12 050 (СВ) 10 км    ясно 
-6.2 -13.4 57 -8  1038.5  -0.3  776  321           
12 04.02.12 060 (СВ) 10 км    ясно 
-2.4 -9.2 60 -3  1037.5  -0.3  775  316           
15 04.02.12 060 (СВ) 10 км    3/0 верхняя 
[Ci fib]
-4 -8.6 70 -4  1037.2  -0.3  775  318    -1.8       
18 04.02.12 040 (СВ) 10 км    ясно 
-8.8 -11.2 83 -9  1036.3  -1  774  323    -1.8       
21 04.02.12 тихо ()   10 км    ясно 
-10.1 -12.6 82 -10  1035.6  -0.8  774  325           
00 05.02.12 030 (СВ) н/о    н/о 
-11.3 -13.6 83 -11  1034.6  -0.9  773  326           
03 05.02.12 тихо ()   10 км    ясно 
-11.6 -13.8 84 -12  1033.4  -1.3  772  326        равномерный
сухой снег
100% 
06 05.02.12 050 (СВ) 10 км    1/0 верхняя 
[Ci fib]
-9.1 -12.8 75 -9  1033.1  -0.2  772  323  -12         
09 05.02.12 100 (В) 10 км    1/0 верхняя 
[Ci fib]
-3.6 -10.5 59 -6  1032  -0.9  771  316           
12 05.02.12 070 (В) 10 км    1/0 верхняя 
[Ci fib]
-0.6 -8.3 56 -2  1030.6  -1.4  770  312           
15 05.02.12 040 (СВ) 10 км    ясно 
-4.6 -8.5 74 -4  1030.6  770  317    -0.3       
18 05.02.12 040 (СВ) 10 км    ясно 
-8.8 -11.3 82 -9  1029.6  -1  769  321    -0.3       
21 05.02.12 040 (СВ) 10 км    ясно 
-10.6 -13.1 82 -12  1030  0.3  770  324           
00 06.02.12 060 (СВ) 10 км    ясно 
-12.7 -15.6 79 -15  1029.2  -0.8  769  326           
03 06.02.12 060 (СВ) 10 км    ясно 
-13.7 -16.4 80 -16  1028.6  -0.6  768  327           
06 06.02.12 060 (СВ) 10 км    ясно 
-11.6 -15.5 73 -11  1029  0.4  769  325  -13.7         
09 06.02.12 060 (СВ) 10 км    ясно 
-5.6 -12.2 60 -8  1028.8  -0.2  769  317           
12 06.02.12 060 (СВ) 10 км    ясно 
-4.4 -10.9 61 -8  1028.6  -0.2  768  316           
15 06.02.12 050 (СВ) 10 км    1/0 верхняя 
[Ci fib]
-9.5 -13.6 72 -11  1029.4  0.7  769  322    -4       
18 06.02.12 060 (СВ) 10 км    ясно 
-12.8 -16.4 74 -16  1030.2  0.8  770  327    -4       
21 06.02.12 070 (В) 10 км    ясно 
-13.9 -18.1 70 -18  1030.1  -0.2  770  328           
00 07.02.12 050 (СВ) 10 км    ясно 
-17.3 -21.7 68 -20  1031.2  770  333           
03 07.02.12 060 (СВ) 10 км    ясно 
-19.6 -24 68 -24  1030.3  -0.9  770  336        равномерный
сухой снег
100% 
06 07.02.12 050 (СВ) 10 км    ясно 
-18.8 -24.1 63 -24  1031.1  0.9  770  335  -19.7         
09 07.02.12 070 (В) 10 км    3/0 верхняя 
[Ci fib]
-13.5 -21 53 -19  1030.6  -0.5  770  328           
12 07.02.12 060 (СВ) 10 км    3/0 верхняя 
[Ci fib]
-12.5 -20.2 53 -18  1029.5  -1.1  769  326           
15 07.02.12 050 (СВ) 10 км    5/0 верхняя 
[Ci fib]
-15.3 -20.8 63 -20  1029.5  769  330    -12       
18 07.02.12 060 (СВ) 10 км    4/0 верхняя 
[Ci fib]
-18.3 -22.5 70 -24  1029.8  0.3  769  334    -12       
21 07.02.12 050 (СВ) 10 км    ясно 
-19.2 -23.2 71 -23  1028.9  -1  769  335           
00 08.02.12 050 (СВ) 10 км    ясно 
-20.3 -23.8 74 -25  1028  -0.9  768  336           
03 08.02.12 050 (СВ) 10 км    ясно 
-20.6 -24.1 73 -25  1028  768  336        равномерный
сухой снег
100% 
06 08.02.12 060 (СВ) 10 км    ясно 
-19.7 -23.3 73 -24  1028.8  0.9  769  335  -20.6         
09 08.02.12 050 (СВ) 10 км    ясно 
-15.5 -21.3 61 -19  1029.1  0.4  769  330           
12 08.02.12 020 (С) 10 км    ясно 
-12 -19 56 -14  1028.4  -0.7  768  325           
15 08.02.12 020 (С) 10 км    ясно 
-15 -19.7 68 -17  1029.6  1.1  769  329    -11.9       
18 08.02.12 030 (СВ) 10 км    ясно 
-17.1 -20.5 75 -17  1030.6  770  333    -11.9       
21 08.02.12 тихо ()   10 км    ясно 
-16.9 -20.8 72 -17  1029.6  -1  769  332           
00 09.02.12 тихо ()   10 км    ясно 
-18.3 -20.4 83 -18  1028.8  -0.8  769  334           
03 09.02.12 тихо ()   10 км    ясно 
-18.1 -20.7 80 -18  1028.3  -0.5  768  333        равномерный
сухой снег
100% 
06 09.02.12 080 (В) 10 км    10/0 верхняя 
[Cs]
-17.5 -20.1 80 -18  1027.7  -0.5  768  332  -18.4         
09 09.02.12 050 (СВ) 10 км    10/0 средняя 
[Sc|Ac trans]
-12.9 -18 66 -13  1026.4  -1.2  767  326           
12 09.02.12 040 (СВ) 10 км    10/10 1000 м 
[Sc]
-10.9 -17.5 58 -11  1025  -1.3  766  323           
15 09.02.12 030 (СВ) 10 км    9/8 600 м средняя 
[Sc|Ac trans]
-11.7 -16 70 -14  1025  766  324    -10.7       
18 09.02.12 030 (СВ) 10 км    9/3 1500 м средняя 
[Sc|Ac trans]
-14 -17.5 75 -16  1024.9  -0.2  766  327    -10.7       
21 09.02.12 040 (СВ) 10 км    3/0 средняя 
[Ac trans]
-16.3 -19.4 77 -19  1024.8  0.1  766  330           
00 10.02.12 040 (СВ) 10 км    3/0 средняя 
[Ac trans]
-17.8 -20.8 77 -18  1025.7  0.9  766  332           
03 10.02.12 тихо ()   10 км    ясно 
-18.9 -21.2 82 -19  1026.8  767  334        равномерный
сухой снег
100% 
06 10.02.12 050 (СВ) 10 км    ясно 
-16.6 -19.9 75 -17  1028.4  1.6  768  331  -18.9         
09 10.02.12 040 (СВ) 10 км    ясно 
-10.9 -19 51 -11  1028.9  0.6  769  324           
12 10.02.12 050 (СВ) 10 км    ясно 
-9.8 -18 51 -10  1028.7  -0.2  769  323           
15 10.02.12 040 (СВ) 10 км    3/0 верхняя 
[Ci fib]
-11.6 -17.7 61 -11  1030.3  1.6  770  325    -8.8       
18 10.02.12 090 (В) 10 км    ясно 
-12.9 -17.7 67 -13  1031.4  1.6  770  327    -8.8       
21 10.02.12 тихо ()   10 км    ясно 
-14 -17.9 72 -14  1031.9  0.6  771  329           
00 11.02.12 210 (ЮЗ) 10 км    ясно 
-15.1 -17.8 79 -15  1032.7  0.7  771  331           
03 11.02.12 тихо ()   10 км    ясно 
-15.6 -17.9 82 -16  1033.1  0.4  772  331        сухой снег
50-90% 
06 11.02.12 тихо ()   10 км    4/0 верхняя 
[Ci fib]
-14.3 -17.8 74 -14  1034.5  1.4  773  330  -16         
09 11.02.12 тихо ()   10 км    10/0 верхняя 
[Cs]
-6.7 -15.1 51 -7  1034.5  0.1  773  321           
12 11.02.12 060 (СВ) 10 км    10/0 верхняя 
[Cs]
-5.1 -12.8 55 -5  1033.3  -1.1  772  318           
15 11.02.12 060 (СВ) 10 км    10/3 600 м верхняя 
[Sc|Ci fib]
-8 -13.1 67 -10  1033.5  0.2  772  322    -5       
18 11.02.12 тихо ()   10 км    10/8 600 м средняя 
[Sc|Ac und]
-7.8 -13.8 62 -8  1033.6  -0.1  772  322    -5       
21 11.02.12 тихо ()   1000 м  ливневой снег  10/10 300 м кучево-дожд. 
[Cb cap]
-8.8 -10.5 87 -9  1034  0.4  773  323           
00 12.02.12 тихо ()   2000 м  слаб. ливневой снег  10/10 300 м кучево-дожд. 
[Cb cap]
-8.9 -10.4 89 -9  1034.3  0.3  773  323           
03 12.02.12 040 (СВ) н/о  слаб. ливневой снег  10/0 кучево-дожд., средняя 
[Cb cap|Ac und]
-9 -10.4 89 -9  1034.3  0.3  773  323        13  равномерный
сухой снег
100% 
06 12.02.12 060 (СВ) 4000 м  слаб. ливневой снег  10/10 300 м кучево-дожд. 
[Cb cap]
-8.2 -10.1 86 -8  1034.3  0.3  773  322  -9.2         
09 12.02.12 070 (В) 1000 м  ливневой снег  10/10 200 м кучево-дожд. 
[Cb cap]
-6.2 -8.7 82 -6  1033.7  -0.6  772  319           
12 12.02.12 040 (СВ) 2000 м  слаб. ливневой снег  10/10 300 м кучево-дожд. 
[Cb cap]
-4.3 -6.6 84 -4  1032.1  -0.6  771  316           
15 12.02.12 040 (СВ) 10 км  {ливн. осадки}  10/10 600 м 
[Sc diur, vesp]
-4.9 -7.1 84 -4  1032  0.1  771  317    -3.7       
18 12.02.12 тихо ()   10 км  {ливн. осадки}  9/9 600 м 
[Sc]
-5.6 -7.4 87 -6  1031.4  -0.6  771  318    -3.7     
21 12.02.12 040 (СВ) 10 км    10/0 средняя 
[Ac und]
-7.8 -9.7 86 -8  1030  -1.4  770  320           
00 13.02.12 040 (СВ) 10 км    10/10 1000 м 
[Sc]
-8 -10.4 83 -8  1029.3  -0.7  769  320           
03 13.02.12 060 (СВ) 10 км    9/9 1000 м 
[Sc]
-7.5 -9.8 84 -7  1027.9  -1.4  768  319        16  равномерный
сухой снег
100% 
06 13.02.12 060 (СВ) 10 км    10/10 1000 м 
[Sc]
-6.8 -9.3 83 -8  1027.1  -0.7  767  318  -8.2         
09 13.02.12 040 (СВ) 10 км    8/0 средняя 
[Ac As]
-1.6 -7.5 64 -1  1025.5  -1.6  766  311           
12 13.02.12 050 (СВ) 10 км    4/0 верхняя 
[Ci]
+1.9 -6.6 53 +3  1022.7  -2.7  764  307           
15 13.02.12 050 (СВ) 10 км    8/0 верхняя 
[Ci]
-0.5 -5.4 69 1021.1  -1.6  763  309    +2.7       
18 13.02.12 060 (СВ) 10 км    ясно 
-2.9 -5.8 81 -2  1019.3  -1.9  762  311    +2.7       
21 13.02.12 100 (В) 10 км    ясно 
-3.1 -6.3 79 -3  1017.2  -2.1  760  310           
00 14.02.12 110 (В) 10 км    ясно 
-4.7 -7.6 80 -4  1015.4  -1.8  759  312           
03 14.02.12 060 (СВ) 10 км    ясно 
-6.3 -8.9 82 -6  1014.1  -1.8  758  313        10  равномерный
сухой снег
100% 
06 14.02.12 060 (СВ) 10 км    10/3 1000 м средняя, верхняя 
[Sc|Ac trans|Ci sp]
-3.4 -7.6 73 -3  1013.2  -0.8  757  310  -6.4         
09 14.02.12 060 (СВ) 10 км    10/8 1000 м средняя, верхняя 
[Sc|Ac trans|Ci fib]
-0.9 -6.1 68 1013.2  757  307           
12 14.02.12 070 (В) 10 км    10/8 1000 м средняя, верхняя 
[Sc|Ac trans|Ci fib]
+3.3 -3.3 62 +4  1013.2  757  302           
15 14.02.12 220 (ЮЗ) 10 км    10/4 600 м средняя 
[Sc|Ac und]
+7.7 +0.8 62 +7  1013.7  0.6  758  297    +8.9       
18 14.02.12 220 (ЮЗ) 10 км    10/8 1000 м средняя 
[Sc|Ac und]
+5.8 +2.3 78 +7  1014.5  0.8  758  299    +8.9       
21 14.02.12 тихо ()   10 км    9/4 1500 м средняя 
[Sc|Ac trans]
+3.5 +1.8 89 +4  1014.4  -0.1  758  301           
00 15.02.12 030 (СВ) 10 км    9/9 1000 м 
[Sc]
+3.4 +1.5 87 +4  1013.1  -1.3  757  301           
03 15.02.12 060 (СВ) 10 км    10/5 600 м кучево-дожд., средняя 
[Cb cap|Ac und]
+3.6 -1.8 68 +4  1010.9  -2.2  755  301        равномерный
мокрый или
старый снег
100% 
06 15.02.12 060 (СВ) 4000 м  слаб. ливневой дождь  10/5 600 м кучево-дожд., средняя 
[Cb cap|Ac und]
+2 -0.3 85 +3  1009.3  -1.7  754  302  +2.5         
09 15.02.12 290 (З) 10 км  слаб. ливневой дождь  10/8 1000 м кучево-дожд., средняя 
[Cb cap|Ac und]
+4 +1.5 84 +5  1006.8  -2.4  752  299           
12 15.02.12 100 (В) 10 км  {ливн. осадки}  10/6 600 м кучево-дожд., средняя, верхняя 
[Cb cap|Ac trans|Ci fib]
+5.5 +0.5 70 +6  1003.9  -2.8  750  296           
15 15.02.12 240 (ЮЗ) 10 км    10/8 600 м кучево-дожд., средняя, верхняя 
[Cb cap|Ac trans|Ci fib]
+5.1 -1 65 +6  1002.3  -1.7  749  296    +6.6       
18 15.02.12 тихо ()   10 км    10/8 600 м кучево-дожд., средняя 
[Cb cap|Ac und]
+3.3 -0.5 76 +3  1001.4  -1  748  298    +6.6  0.7     
21 15.02.12 280 (З) 4000 м  слаб. ливневой дождь  10/10 600 м кучево-дожд. 
[Cb cap]
+0.7 -0.1 94 1002.1  0.7  749  301           
00 16.02.12 270 (З) 4000 м  слаб. ливневой снег [диам. отлож. мокр. снега 2 мм]  10/10 300 м кучево-дожд. 
[Cb cap]
-2.5 -3.2 95 -4  1004.8  2.6  751  306           
03 16.02.12 270 (З) 10 км  {ливн. осадки} [диам. отлож. мокр. снега 2 мм]  10/10 300 м кучево-дожд. 
[Cb cap]
-2.9 -3.7 94 -4  1007.1  2.3  752  307        равномерный
сухой снег
100% 
06 16.02.12 270 (З) 10 км  {ливн. осадки}  10/5 600 м средняя, верхняя 
[Sc|Ac trans|Ci fib]
-3.8 -5.4 89 -5  1008.3  1.1  753  308  -2.9       
09 16.02.12 280 (З) 10 км    8/0 верхняя 
[Ci fib]
+1.5 -6 57 +2  1008.5  0.3  754  303           
12 16.02.12 тихо ()   10 км    10/0 верхняя 
[Ci fib]
+3.5 -6.4 48 +4  1008.8  0.4  754  301           
15 16.02.12 090 (В) 10 км    10/0 средняя, верхняя 
[Ac trans|Ci fib]
+1.4 -4.7 64 +2  1009.1  0.2  754  303    +4.5       
18 16.02.12 070 (В) 10 км    ясно 
-0.6 -5 72 1009.2  0.1  754  305    +4.5       
21 16.02.12 060 (СВ) 10 км    10/0 средняя, верхняя 
[Ac trans|Cs]
-1.7 -5.3 76 -1  1008.9  -0.3  754  306           
00 17.02.12 тихо ()   10 км    10/0 верхняя 
[Cs]
-2.3 -4.8 83 -2  1008.9  754  307           
03 17.02.12 050 (СВ) 10 км    10/0 верхняя 
[Cs]
-3.1 -4.9 87 -3  1008.8  0.1  754  308        равномерный
сухой снег
100% 
06 17.02.12 040 (СВ) 10 км    10/0 верхняя 
[Cs]
-3.1 -4.9 87 -3  1008.8  0.1  754  308  -3.2         
09 17.02.12 040 (СВ) 10 км    4/4 1000 м 
[Cu hum]
+2.1 -2.8 70 +1  1008.3  -0.4  753  302           
12 17.02.12 030 (СВ) 10 км    8/6 600 м верхняя 
[St|Ci]
+2.5 -2.3 71 +1  1006.9  -1.4  752  301           
15 17.02.12 050 (СВ) 10 км    10/3 600 м средняя 
[Sc|As op]
-0.4 -3.3 81 -1  1007  752  304    +3.4       
18 17.02.12 040 (СВ) 10 км    10/0 средняя 
[Sc|As trans]
-0.8 -3.4 82 -2  1006.8  -0.2  752  304    +3.4       
21 17.02.12 030 (СВ) 4000 м  дымка  10/10 300 м 
[St]
-1.4 -3 89 -3  1006.3  -0.5  752  305           
00 18.02.12 030 (СВ) 4000 м  дымка  10/10 300 м 
[St]
-2.2 -3.5 91 -4  1006.9  0.7  752  306           
03 18.02.12 030 (СВ) 10 км    10/0 
[St]
-4.2 -6.1 87 -6  1007.7  0.7  753  309        мокрый или
старый снег
10-40% 
06 18.02.12 040 (СВ) 4000 м  слаб. снег  10/10 300 м 
[Frnb|Ns]
-5.2 -7.4 85 -8  1009.5  1.8  754  311  -4.2         
09 18.02.12 030 (СВ) 2000 м  снег  10/10 200 м 
[Frnb|Ns]
-4.7 -6.4 88 -6  1010.8  1.3  755  310           
12 18.02.12 040 (СВ) 4000 м  слаб. снег  10/10 300 м 
[Frnb|Ns]
-4.6 -6.7 85 -6  1012  1.1  756  311           
15 18.02.12 040 (СВ) 10 км  {снег}  10/10 300 м 
[Frnb|Ns]
-5.1 -7.7 82 -6  1013.5  1.5  757  312    -4.2       
18 18.02.12 040 (СВ) 10 км  {снег}  10/10 300 м 
[St]
-5.6 -8.1 82 -7  1015.5  1.9  759  313    -4.2     
21 18.02.12 020 (С) 4000 м  слаб. снег  10/10 200 м 
[St]
-6.6 -8.9 84 -6  1017  1.4  760  315           
00 19.02.12 030 (СВ) 4000 м  слаб. снег  10/10 200 м 
[Frnb|Ns]
-6.7 -9.2 82 -6  1018.1  1.1  761  315           
03 19.02.12 020 (С) 4000 м  слаб. снег  10/10 200 м 
[Frnb|Ns]
-7.1 -9.1 86 -7  1019.6  1.5  762  316        равномерный
сухой снег
100% 
06 19.02.12 040 (СВ) 4000 м  слаб. снег  10/10 300 м 
[Frnb|Ns]
-7 -9.3 84 -7  1021.9  2.3  764  317  -7.1    0.5     
09 19.02.12 030 (СВ) 4000 м  слаб. снег  10/10 300 м 
[St]
-5.6 -8.9 77 -5  1023.7  1.8  765  316           
12 19.02.12 020 (С) 4000 м  слаб. снег  10/10 300 м 
[St]
-5.2 -8.3 79 -5  1025.2  1.5  766  316           
15 19.02.12 020 (С) 4000 м  слаб. снег  10/10 300 м 
[St]
-6.5 -8.6 85 -6  1027.4  2.2  768  318    -5.2       
18 19.02.12 020 (С) 4000 м  слаб. снег  10/10 300 м 
[St]
-7.4 -9.3 86 -7  1030  2.6  770  320    -5.2     
21 19.02.12 050 (СВ) 4000 м  слаб. снег  10/8 300 м средняя 
[St|As op]
-7.5 -9.5 86 -7  1032  771  320           
00 20.02.12 060 (СВ) 10 км  {снег}  10/8 300 м средняя 
[St|As op]
-7.5 -9.1 88 -7  1033.9  1.8  772  321           
03 20.02.12 060 (СВ) 10 км  слаб. снег  10/8 300 м средняя 
[St|As op]
-7.6 -9.1 89 -7  1035.4  1.5  774  322        равномерный
сухой снег
100% 
06 20.02.12 060 (СВ) 10 км  {снег}  6/3 300 м средняя, верхняя 
[St|As op|Cc]
-6.8 -9.2 83 -6  1037.5  2.1  775  321  -7.7       
09 20.02.12 180 (Ю) 10 км    ясно 
-0.2 -7.9 56 1038  0.5  776  314           
12 20.02.12 300 (СЗ) 10 км    4/0 средняя, верхняя 
[Ac trans|Cc]
+1.5 -6.9 54 +2  1037.6  0.5  775  311           
15 20.02.12 300 (СЗ) 10 км    ясно 
-2.3 -7.3 69 -2  1038.3  0.7  776  316    +1.8       
18 20.02.12 тихо ()   10 км    10/10 1000 м 
[Sc]
-3.9 -6.8 80 -4  1038.9  0.6  776  318    +1.8  0.0     
21 20.02.12 170 (Ю) 10 км    10/10 1000 м 
[Sc]
-2.7 -6.5 75 -2  1038.2  -0.7  776  316           
00 21.02.12 050 (СВ) 10 км    10/10 1000 м 
[Sc]
-2.6 -6 77 -2  1037.5  -0.7  775  316           
03 21.02.12 060 (СВ) 10 км    6/0 средняя, верхняя 
[Ac trans|Ci fib]
-6.3 -8.2 86 -6  1036.8  -0.8  775  320        равномерный
сухой снег
100% 
06 21.02.12 тихо ()   10 км    10/0 средняя, верхняя 
[Ac trans|Ci fib]
-5 -7.3 84 -5  1036.4  -0.3  774  319  -6.3         
09 21.02.12 050 (СВ) 10 км    10/0 верхняя 
[Ci fib]
+4 -4.8 53 +5  1034.9  -1.4  773  308           
12 21.02.12 080 (В) 10 км    10/0 средняя, верхняя 
[Ac trans|Cc]
+5 -4.9 49 +6  1033.2  -1.7  772  306           
15 21.02.12 050 (СВ) 10 км    10/0 верхняя 
[Ci fib]
+1.4 -3.5 70 +2  1032.4  -0.8  771  310    +5.1       
18 21.02.12 060 (СВ) 10 км    10/0 средняя, верхняя 
[Ac trans|Ci fib]
-0.6 -4.3 76 1031.6  -0.8  771  312    +5.1       
21 21.02.12 тихо ()   10 км    10/0 верхняя 
[Ci fib]
-2.3 -4.9 82 -2  1031.2  -0.5  770  314           
00 22.02.12 100 (В) 10 км    10/0 средняя, верхняя 
[Ac trans|Ci fib]
-2.1 -4.6 83 -2  1030.4  -0.8  770  313           
03 22.02.12 тихо ()   10 км    10/0 средняя, верхняя 
[Ac trans|Ci fib]
-3.3 -4.7 90 -3  1030.3  -0.1  770  315        сухой снег
50-90% 
06 22.02.12 тихо ()   4000 м  дымка  6/3 1000 м верхняя 
[Sc|Ci fib]
+0.2 -3.6 75 1030.2  0.1  770  310  -3.4         
09 22.02.12 210 (ЮЗ) 10 км    10/3 1000 м верхняя 
[Sc|Ci fib]
+6.2 -0.5 62 +6  1029.2  -0.9  769  303           
12 22.02.12 230 (ЮЗ) 10 км  {ливн. осадки}  10/6 1000 м кучево-дожд., средняя, верхняя 
[Cb cap|Ac trans|Ci fib]
+6.2 +0.2 65 +5  1027.4  -0.9  768  302           
15 22.02.12 300 (СЗ) 4000 м  слаб. крупа{ливн. осадки}  10/10 600 м кучево-дожд. 
[Cb cap]
+0.8 -1.4 85 1028.1  0.6  768  309    +6.8       
18 22.02.12 270 (З) 4000 м  слаб. крупа{ливн. осадки}  10/10 600 м кучево-дожд. 
[Cb cap]
+0 -1.2 91 +1  1027.6  -0.4  768  310    +6.8  0.0     
21 22.02.12 310 (СЗ) 10 км  {ливн. осадки}  10/10 600 м кучево-дожд. 
[Cb cap]
-0.6 -2.3 88 -1  1027.4  -0.2  768  310           
00 23.02.12 260 (З) 10 км  {ливн. осадки}  10/8 600 м кучево-дожд., средняя 
[Cb cap|Ac und]
-1.1 -2.8 88 -2  1026.2  -1.3  767  311           
03 23.02.12 260 (З) 10 км    10/6 300 м кучево-дожд., средняя 
[Cb cap|Ac und]
+0.5 -2.1 83 1025.8  -0.8  767  309        сухой снег
50-90% 
06 23.02.12 280 (З) 10 км    9/8 300 м средняя 
[St|Ac trans]
+0.7 -1 88 -1  1026.4  0.7  767  308  -1.4    0.6     
09 23.02.12 290 (З) 10 км    10/10 600 м 
[Sc]
+1.1 -1.9 80 1026.6  0.2  767  308           
12 23.02.12 330 (СЗ) 10 км    9/3 600 м средняя, верхняя 
[Cu hum|Ac trans|Ci fib]
+4.3 -1.4 66 +5  1024.9  0.2  766  304           
15 23.02.12 310 (СЗ) 10 км    9/8 1000 м верхняя 
[Sc|Ci fib]
+2.1 -2.8 70 +3  1023.4  -1.5  765  306    +4.5       
18 23.02.12 140 (ЮВ) 10 км    9/9 1000 м 
[Sc]
+1.9 -2.6 72 +3  1021.8  -1.6  764  306    +4.5       
21 23.02.12 130 (ЮВ) 10 км    5/5 1000 м 
[Sc]
+1 -2.7 76 +2  1019.1  -2.7  761  306           
00 24.02.12 080 (В) 10 км    10/10 1000 м 
[Sc]
-0.2 -2.2 86 1017.1  -2  760  307           
03 24.02.12 150 (ЮВ) 10 км    9/9 1000 м 
[Sc]
+2 -1.7 76 +3  1014.1  -2.9  758  303           
06 24.02.12 150 (ЮВ) 10 км    10/10 1000 м 
[Sc]
+2.9 -1.7 72 +4  1013.1  -0.9  757  302  -0.1         
09 24.02.12 220 (ЮЗ) 10 км    10/8 1000 м кучево-дожд., средняя 
[Cb cap|Ac und]
+6 -2.4 55 +5  1011.3  -1.8  756  298           
12 24.02.12 200 (Ю) 10 км    10/3 1000 м средняя 
[Sc|Ac und]
+4.8 +0.4 73 +3  1009.7  -1.6  755  299           
15 24.02.12 210 (ЮЗ) 10 км  слаб. ливневой дождь  10/10 1000 м кучево-дожд. 
[Cb cap]
+3.7 +1 83 +2  1009.3  -0.4  754  300    +6.1       
18 24.02.12 230 (ЮЗ) 4000 м  слаб. ливневой дождь  10/10 300 м кучево-дожд. 
[Cb cap]
+3.3 +1.2 86 +3  1009.7  0.4  755  300    +6.1  0.3     
21 24.02.12 230 (ЮЗ) 10 км  в посл. час ливневой дождь  10/10 1000 м кучево-дожд. 
[Cb cap]
+3.9 +0.3 77 +3  1009.2  -0.5  754  300           
00 25.02.12 210 (ЮЗ) 4000 м  слаб. ливневой дождь  10/10 300 м кучево-дожд. 
[Cb cap]
+3.4 +0.9 84 +2  1008.3  -0.9  753  300           
03 25.02.12 180 (Ю) 10 км  {ливн. осадки}  10/10 1000 м 
[Sc]
+3.4 +0.8 83 +3  1006.2  -2.2  752  299           
06 25.02.12 200 (Ю) 10 км  в посл. час дождь{ливн. осадки, снег}  10/10 600 м 
[Sc]
+4.5 +1.8 83 +3  1004.6  -1.6  751  297  +2.7    0.9     
09 25.02.12 210 (ЮЗ) 10 км  {снег}  10/10 300 м 
[St]
+5.1 +1.9 80 +3  1002.9  -1.7  749  296           
12 25.02.12 200 (Ю) 4000 м  слаб. дождь  10/10 300 м 
[Frnb|Ns]
+4.7 +3.1 89 +4  1001.2  -1.7  748  296           
15 25.02.12 190 (Ю) 4000 м  слаб. дождь  10/10 300 м 
[Frnb|Ns]
+3 +2.3 95 +2  1002.3  1.1  749  298    +5.5       
18 25.02.12 210 (ЮЗ) 10 км  в посл. час ливневой дождь  10/10 300 м кучево-дожд. 
[Cb cap]
+3.3 +1.6 89 +1  1003.2  0.9  750  298    +5.5  12     
21 25.02.12 220 (ЮЗ) 10 км  {ливн. осадки}  10/10 600 м кучево-дожд. 
[Cb cap]
+3.2 +1.4 88 +3  1004  0.8  750  299           
00 26.02.12 260 (З) 10 км  {ливн. осадки}  9/5 300 м средняя 
[St|Ac trans]
+3.7 +0.7 81 +2  1004.7  0.7  751  298           
03 26.02.12 240 (ЮЗ) 10 км    10/8 600 м кучево-дожд., средняя 
[Cb cap|Ac und]
+3.2 +0.4 82 +3  1005.1  0.4  751  299           
09 26.02.12 250 (З) 10 км  {дождь}  10/3 600 м средняя 
[Sc|As trans]
+5.4 +0.4 70 +4  1007.6  753  297           
12 26.02.12 240 (ЮЗ) 10 км  {дождь}  9/6 600 м кучево-дожд., средняя, верхняя 
[Cb cap|Ac trans|Ci]
+8 -0.5 55 +7  1008  0.5  753  295           
18 26.02.12 230 (ЮЗ) 4000 м  слаб. дождь{ливн. осадки}  10/10 300 м 
[Ns]
+4.1 +1.9 86 +3  1010.5  0.9  755  299    +8.2  0.0     
21 26.02.12 200 (Ю) 10 км  {дождь}  10/4 600 м средняя, верхняя 
[Sc|Ac trans|Ci fib]
+4.4 +1.5 81 +3  1010.3  -0.2  755  299           
00 27.02.12 220 (ЮЗ) 10 км  {дождь}  9/6 600 м средняя 
[Sc|Ac trans]
+3.8 +1.2 83 +5  1010.4  755  300           
03 27.02.12 180 (Ю) 4000 м  слаб. дождь  10/10 600 м 
[Sc]
+3.7 +2.1 89 +5  1010.4  0.1  755  300           
06 27.02.12 080 (В) 4000 м  слаб. дождь  10/8 600 м средняя 
[Frnb|Ac und]
+3.9 +2.8 93 +5  1011.2  0.8  756  300  +3.4       
09 27.02.12 050 (СВ) 10 км  {дождь}  9/6 300 м средняя 
[Sc|Ac trans]
+5.7 +3.2 84 +7  1010.7  -0.5  755  298           
12 27.02.12 070 (В) 10 км  слаб. дождь  10/10 300 м 
[St]
+5.7 +3.3 85 +5  1009.9  -0.8  755  297           
15 27.02.12 070 (В) 4000 м  слаб. дождь  10/10 300 м 
[Frnb|Ns]
+4.3 +3.3 93 +5  1009.6  -0.3  754  299    +6.1       
18 27.02.12 070 (В) 4000 м  слаб. дождь  10/10 200 м 
[Frnb|Ns]
+3.2 +2.4 95 +3  1008.8  -0.9  754  300    +6.1     
21 27.02.12 100 (В) 4000 м  слаб. дождь  10/10 300 м 
[Frnb|Ns]
+2.7 +1.7 93 +2  1008.2  -0.6  753  300           
00 28.02.12 090 (В) 4000 м  слаб. дождь  10/10 300 м 
[Frnb|Ns]
+2.7 +1.4 91 +2  1006.2  -1.9  752  300           
03 28.02.12 100 (В) 4000 м  слаб. дождь  10/10 300 м 
[Frnb|Ns]
+2.3 +0.9 90 +2  1005  -1.2  751  300           
06 28.02.12 тихо ()   4000 м  слаб. дождь  10/10 100 м 
[Frnb|Ns]
+2.3 +1.4 94 +2  1005.6  0.6  751  300  +2.1       
09 28.02.12 250 (З) 4000 м  слаб. дождь  10/10 200 м 
[Frnb|Ns]
+2.5 +1.5 93 +3  1005.8  0.2  752  300           
12 28.02.12 270 (З) 4000 м  слаб. снег{дождь}  10/10 300 м 
[Frnb|Ns]
+1.3 +0.3 93 +1  1006.2  0.4  752  301           
15 28.02.12 270 (З) 10 км  в посл. час ливневой снег  10/10 300 м кучево-дожд. 
[Cb cap]
+0.6 -0.2 94 1006.1  -0.2  752  302    +3       
18 28.02.12 300 (СЗ) 4000 м  слаб. ливневой снег  10/10 300 м кучево-дожд. 
[Cb cap]
+0.4 -0.4 94 +1  1004.8  -1.2  751  302    +3     
21 28.02.12 300 (СЗ) 4000 м  слаб. ливневой снег  10/10 300 м кучево-дожд. 
[Cb cap]
+0.3 -0.4 95 1004  -0.8  750  302           
00 29.02.12 270 (З) 4000 м  слаб. ливневой снег  10/10 300 м кучево-дожд. 
[Cb cap]
-0 -0.8 94 -1  1002.4  -1.6  749  302           
03 29.02.12 280 (З) 2000 м  снег{ливн. осадки}  10/10 200 м 
[Frnb|Ns]
-0.6 -1.3 95 -1  1001.6  -0.8  748  302           
06 29.02.12 300 (СЗ) 4000 м  слаб. снег{ливн. осадки}  10/10 300 м 
[Frnb|Ns]
-0.4 -1.5 92 -1  1002.4  0.8  749  302  -0.6       
09 29.02.12 300 (СЗ) 4000 м  слаб. снег  10/10 300 м 
[Frnb|Ns]
+0.6 -1.5 86 1003  0.6  749  301           
12 29.02.12 290 (З) 4000 м  слаб. снег  10/10 300 м 
[Frnb|Ns]
+0.9 -1.8 82 1003.1  -0.1  750  301           
15 29.02.12 310 (СЗ) 4000 м  слаб. снег  10/10 300 м 
[Frnb|Ns]
-0.1 -1.3 92 +1  1004.1  0.9  750  303    +0.9       
18 29.02.12 310 (СЗ) 4000 м  слаб. снег  10/10 300 м 
[Frnb|Ns]
-0.8 -1.7 94 1004.8  0.8  751  304    +0.9     
21 29.02.12 330 (СЗ) 10 км  {снег}  10/10 600 м 
[Sc]
-0.9 -2.3 90 1005.7  0.8  751  304           
00 01.03.12 300 (СЗ) 10 км  {снег}  10/10 600 м 
[Sc]
-1 -2.5 89 1005.2  -0.4  751  304           
03 01.03.12 тихо ()   10 км    10/10 300 м 
[St]
-1 -2.8 88 -1  1004.8  -0.4  751  304        равномерный
сухой снег
100% 
06 01.03.12 020 (С) 10 км    10/10 300 м 
[St]
-0.2 -2.5 84 1005  0.2  751  303  -1.1       
09 01.03.12 010 (С) 4000 м  дымка  10/10 300 м 
[St]
+1.2 -1.1 85 +2  1006.1  1.1  752  302           
12 01.03.12 310 (СЗ) 4000 м  дымка  ясно 
+1.3 -0.2 90 +2  1007.6  1.5  753  302           
15 01.03.12 240 (ЮЗ) 1000 м  ливневой снег [диам. отлож. мокр. снега 1 мм]  10/10 300 м кучево-дожд. 
[Cb cap]
+0.1 -0.7 94 +1  1009.9  1.5  755  304    +1.9       
18 01.03.12 300 (СЗ) 1000 м  ливневой снег  10/10 200 м кучево-дожд. 
[Cb cap]
+0.7 +0.1 96 +1  1010.9  755  304    +1.9  0.9     
21 01.03.12 320 (СЗ) 4000 м  слаб. ливневой дождь  10/10 300 м кучево-дожд. 
[Cb cap]
+0.5 -0.3 94 +1  1011.1  0.2  756  304           
00 02.03.12 330 (СЗ) 10 км  в посл. час ливневой снег  10/10 300 м кучево-дожд. 
[Cb cap]
+0.1 -1 92 -1  1011.1  0.1  755  304           
03 02.03.12 310 (СЗ) 4000 м  слаб. ливневой снег  10/10 300 м кучево-дожд. 
[Cb cap]
-0.7 -2 91 -2  1011  0.1  755  305        равномерный
сухой снег
100% 
06 02.03.12 330 (СЗ) 4000 м  слаб. ливневой снег  10/10 200 м кучево-дожд. 
[Cb cap]
-1.7 -3.2 90 -3  1011.7  0.7  756  307  -0.7         
09 02.03.12 300 (СЗ) 10 км  {ливн. осадки}  8/8 1000 м 
[Cu med, cong]
-0.4 -5.5 68 -2  1011.6  0.1  756  306           
12 02.03.12 330 (СЗ) 10 км  {ливн. осадки}  4/4 1000 м 
[Cu med, cong]
+0.2 -8 54 -2  1011.1  -0.4  756  305           
15 02.03.12 290 (З) 10 км    10/4 600 м средняя 
[Sc|Ac und]
-1.8 -7.2 67 -3  1011.3  0.1  756  307    +0.3       
18 02.03.12 250 (З) 10 км    10/6 600 м средняя 
[Sc|Ac und]
-2.6 -5.5 80 -4  1011.3  0.1  756  308    +0.3     
21 02.03.12 230 (ЮЗ) 1000 м  ливневой снег  10/10 200 м кучево-дожд. 
[Cb cap]
-3.3 -4.3 93 -4  1009.4  0.1  754  308           
00 03.03.12 210 (ЮЗ) 10 км  {ливн. осадки}  10/10 300 м кучево-дожд. 
[Cb cap]
-4 -5.1 92 -5  1007.5  -1.9  753  308           
03 03.03.12 тихо ()   10 км    9/6 600 м средняя 
[Sc|Ac trans]
-3.7 -5.4 88 -4  1005.5  -2  751  307        равномерный
сухой снег
100% 
06 03.03.12 090 (В) 4000 м  слаб. ливневой снег  10/10 300 м кучево-дожд. 
[Cb cap]
-3.3 -4.6 91 -4  1004.8  -0.7  751  307  -4       
09 03.03.12 090 (В) 10 км  в посл. час ливневой снег  10/10 300 м кучево-дожд. 
[Cb cap]
-1.7 -5.1 78 -3  1004.8  0.1  751  305           
Время (UTC), дата Ветер
(°,м/с) 
Видим.   Явления Облачность Т
(°С)
Тd
(°С)
f(%) Тe
(°С)
Pmin
(гПа)
dP
(гПа)
Po
(мм)
O2
(г/м3)
Тmin Tmax R s Состояние
почвы